Location: Unspecified
(0.0000°N, 0.0000°E)
Time: 02:19:09
(UTC+00:00)

STARLINK-1645 - Pass Details

Date: 24 February 2021
Orbit: 317 x 318 km, 53.1° (Epoch: 23 February)

Event Time Altitude Azimuth Distance (km) Brightness Sun altitude
Exits shadow 05:20:35 - 348° (NNW) 1,648 5.8 -13.0°
Reaches altitude 10° 05:21:44 10° 358° (N) 1,220 5.3 -12.7°
Maximum altitude 05:24:02 25° 56° (NE) 703 4.7 -12.1°
Drops below altitude 10° 05:26:21 10° 114° (ESE) 1,229 6.8 -11.6°
Sets 05:28:31 0° 129° (SE) 2,065 7.7 -11.0°
